Back to catalog

KUIPER-00519

AliveCommunicationsLEO
NORAD 68890·PAYLOAD·🇺🇸 United States

Launched Apr 28, 2026 from Cape Canaveral Space Force Station

Loading…

Next Passes (next 24 hours)

TLE

FreshSource: CelesTrak SupGP

Epoch: Sep 14, 2026, 23:41 UTC

1 68890C 26095AC  26257.98689815 -.00018653  00000+0 -24423-2 0  2577
2 68890  51.9017 201.1401 0000712  95.3038 229.3077 14.79939815    10

Track KUIPER-00519 in real time with AllMySat

Download on the App Store